TimeEDT,TemperatureF,Dew PointF,Humidity,Sea Level PressureIn,VisibilityMPH,Wind Direction,Wind SpeedMPH,Gust SpeedMPH,PrecipitationIn,Events,Conditions,WindDirDegrees,DateUTC
12:15 AM,43.0,27.7,55,30.12,10.0,WNW,8.1,-,N/A,,Scattered Clouds,300,2013-03-27 04:15:00
12:35 AM,42.8,26.8,53,30.12,10.0,NW,8.1,-,N/A,,Clear,310,2013-03-27 04:35:00
12:55 AM,42.1,26.6,54,30.13,10.0,WNW,5.8,-,N/A,,Clear,300,2013-03-27 04:55:00
1:15 AM,41.5,26.6,55,30.14,10.0,WNW,9.2,-,N/A,,Clear,300,2013-03-27 05:15:00
1:35 AM,41.5,26.4,55,30.14,10.0,NW,8.1,-,N/A,,Clear,310,2013-03-27 05:35:00
1:55 AM,41.2,26.2,55,30.13,10.0,NW,8.1,-,N/A,,Clear,310,2013-03-27 05:55:00
2:15 AM,40.5,26.2,57,30.13,10.0,NW,6.9,-,N/A,,Clear,310,2013-03-27 06:15:00
2:35 AM,40.1,25.7,56,30.13,10.0,WNW,8.1,-,N/A,,Clear,300,2013-03-27 06:35:00
3:15 AM,39.2,25.7,58,30.12,10.0,WNW,6.9,-,N/A,,Clear,300,2013-03-27 07:15:00
3:35 AM,38.7,25.5,59,30.12,10.0,Calm,Calm,-,N/A,,Clear,0,2013-03-27 07:35:00
3:55 AM,37.9,26.1,62,30.13,10.0,Calm,Calm,-,N/A,,Clear,0,2013-03-27 07:55:00
4:15 AM,37.4,25.7,63,30.13,10.0,Calm,Calm,-,N/A,,Clear,0,2013-03-27 08:15:00
4:35 AM,36.7,25.7,64,30.14,10.0,Calm,Calm,-,N/A,,Clear,0,2013-03-27 08:35:00
4:55 AM,35.8,26.2,68,30.14,10.0,Calm,Calm,-,N/A,,Clear,0,2013-03-27 08:55:00
5:15 AM,34.7,26.2,71,30.14,10.0,Calm,Calm,-,N/A,,Clear,0,2013-03-27 09:15:00
5:35 AM,34.7,26.4,72,30.14,10.0,Calm,Calm,-,N/A,,Clear,0,2013-03-27 09:35:00
5:55 AM,34.2,26.4,73,30.15,10.0,Calm,Calm,-,N/A,,Clear,0,2013-03-27 09:55:00
6:15 AM,34.0,26.4,74,30.16,10.0,WNW,3.5,-,N/A,,Clear,290,2013-03-27 10:15:00
6:35 AM,33.6,26.2,74,30.16,10.0,West,4.6,-,N/A,,Clear,280,2013-03-27 10:35:00
7:15 AM,33.8,26.1,73,30.17,10.0,WNW,4.6,-,N/A,,Clear,290,2013-03-27 11:15:00
7:35 AM,34.0,26.1,73,30.19,10.0,WNW,4.6,-,N/A,,Clear,290,2013-03-27 11:35:00
7:55 AM,34.7,26.2,71,30.20,10.0,WNW,5.8,-,N/A,,Clear,290,2013-03-27 11:55:00
8:15 AM,35.8,26.4,69,30.20,10.0,WNW,8.1,-,N/A,,Clear,300,2013-03-27 12:15:00
8:35 AM,37.4,26.4,65,30.20,10.0,WNW,8.1,-,N/A,,Clear,300,2013-03-27 12:35:00
8:55 AM,39.0,26.4,61,30.21,10.0,WNW,5.8,-,N/A,,Clear,300,2013-03-27 12:55:00
9:15 AM,40.5,26.6,58,30.22,10.0,NW,9.2,-,N/A,,Clear,320,2013-03-27 13:15:00
9:35 AM,42.3,26.6,54,30.22,10.0,NW,13.8,18.4,N/A,,Clear,310,2013-03-27 13:35:00
9:55 AM,43.9,26.8,51,30.22,10.0,NW,12.7,18.4,N/A,,Clear,310,2013-03-27 13:55:00
10:15 AM,45.0,26.2,48,30.22,10.0,NNW,8.1,20.7,N/A,,Clear,330,2013-03-27 14:15:00
10:35 AM,46.4,24.8,43,30.22,10.0,NW,11.5,16.1,N/A,,Clear,320,2013-03-27 14:35:00
10:55 AM,46.9,22.6,38,30.22,10.0,NNW,6.9,20.7,N/A,,Clear,330,2013-03-27 14:55:00
11:15 AM,47.5,22.5,37,30.21,10.0,NNW,4.6,18.4,N/A,,Clear,330,2013-03-27 15:15:00
11:35 AM,48.6,22.3,36,30.21,10.0,NW,13.8,18.4,N/A,,Clear,320,2013-03-27 15:35:00
11:55 AM,49.3,22.1,34,30.21,10.0,WNW,10.4,-,N/A,,Clear,300,2013-03-27 15:55:00
12:15 PM,49.5,21.2,33,30.20,10.0,West,11.5,17.3,N/A,,Clear,280,2013-03-27 16:15:00
12:35 PM,49.8,20.3,31,30.20,10.0,NW,11.5,-,N/A,,Clear,310,2013-03-27 16:35:00
1:15 PM,51.6,20.8,30,30.19,10.0,West,11.5,20.7,N/A,,Clear,270,2013-03-27 17:15:00
1:35 PM,52.2,21.4,30,30.19,10.0,West,12.7,25.3,N/A,,Clear,280,2013-03-27 17:35:00
1:55 PM,52.7,21.0,29,30.18,10.0,West,12.7,27.6,N/A,,Clear,280,2013-03-27 17:55:00
2:15 PM,53.1,21.0,29,30.17,10.0,WNW,15.0,24.2,N/A,,Clear,300,2013-03-27 18:15:00
2:35 PM,53.6,21.2,28,30.16,10.0,WNW,12.7,23.0,N/A,,Clear,290,2013-03-27 18:35:00
2:55 PM,54.1,21.9,29,30.16,10.0,West,12.7,17.3,N/A,,Clear,280,2013-03-27 18:55:00
3:15 PM,54.1,21.9,29,30.15,10.0,WNW,13.8,23.0,N/A,,Clear,290,2013-03-27 19:15:00
3:35 PM,54.9,22.3,28,30.14,10.0,WNW,12.7,23.0,N/A,,Clear,300,2013-03-27 19:35:00
3:55 PM,54.5,21.7,28,30.13,10.0,NW,15.0,19.6,N/A,,Clear,310,2013-03-27 19:55:00
4:15 PM,54.7,21.6,28,30.13,10.0,NW,18.4,24.2,N/A,,Clear,310,2013-03-27 20:15:00
4:35 PM,55.4,21.9,27,30.14,10.0,WNW,10.4,23.0,N/A,,Clear,300,2013-03-27 20:35:00
4:55 PM,55.0,21.9,28,30.13,10.0,NW,11.5,20.7,N/A,,Clear,310,2013-03-27 20:55:00
5:15 PM,55.6,21.9,27,30.14,10.0,NW,10.4,20.7,N/A,,Clear,310,2013-03-27 21:15:00
5:35 PM,55.2,22.3,28,30.14,10.0,WNW,13.8,19.6,N/A,,Clear,290,2013-03-27 21:35:00
6:15 PM,54.5,21.0,27,30.14,10.0,NW,11.5,17.3,N/A,,Clear,320,2013-03-27 22:15:00
6:35 PM,54.0,21.9,29,30.15,10.0,NNW,5.8,18.4,N/A,,Clear,330,2013-03-27 22:35:00
7:15 PM,52.2,22.5,31,30.15,10.0,NNW,6.9,-,N/A,,Clear,340,2013-03-27 23:15:00
7:35 PM,50.9,22.1,32,30.16,10.0,NW,9.2,-,N/A,,Clear,320,2013-03-27 23:35:00
7:55 PM,49.3,22.1,34,30.17,10.0,NNW,6.9,-,N/A,,Clear,330,2013-03-27 23:55:00
8:15 PM,48.6,22.3,36,30.18,10.0,NW,3.5,-,N/A,,Clear,320,2013-03-28 00:15:00
8:35 PM,47.3,22.5,38,30.19,10.0,NW,5.8,-,N/A,,Clear,320,2013-03-28 00:35:00
9:15 PM,45.5,23.0,41,30.20,10.0,Calm,Calm,-,N/A,,Clear,0,2013-03-28 01:15:00
9:35 PM,44.4,23.5,44,30.22,10.0,NNW,3.5,-,N/A,,Clear,330,2013-03-28 01:35:00
9:55 PM,44.1,23.5,44,30.22,10.0,NNW,3.5,-,N/A,,Clear,340,2013-03-28 01:55:00
10:15 PM,43.9,23.7,45,30.22,10.0,Calm,Calm,-,N/A,,Clear,0,2013-03-28 02:15:00
10:35 PM,42.3,23.7,48,30.22,10.0,Calm,Calm,-,N/A,,Clear,0,2013-03-28 02:35:00
10:55 PM,42.4,23.4,47,30.22,10.0,North,3.5,-,N/A,,Clear,350,2013-03-28 02:55:00
11:15 PM,41.7,23.5,49,30.22,10.0,Calm,Calm,-,N/A,,Clear,0,2013-03-28 03:15:00
11:35 PM,41.0,23.5,50,30.23,10.0,Calm,Calm,-,N/A,,Clear,0,2013-03-28 03:35:00
11:55 PM,40.6,23.2,50,30.23,10.0,Calm,Calm,-,N/A,,Clear,0,2013-03-28 03:55:00